TimeEDT,TemperatureF,Dew PointF,Humidity,Sea Level PressureIn,VisibilityMPH,Wind Direction,Wind SpeedMPH,Gust SpeedMPH,PrecipitationIn,Events,Conditions,WindDirDegrees,DateUTC
12:15 AM,64.4,62.6,94,29.57,0.5,SSE,3.5,-,N/A,,Overcast,160,2013-06-29 04:15:00
12:35 AM,62.6,62.6,100,29.57,0.2,South,3.5,-,N/A,,Overcast,180,2013-06-29 04:35:00
12:55 AM,62.6,62.6,100,29.57,0.5,SSE,5.8,-,N/A,,Overcast,160,2013-06-29 04:55:00
1:15 AM,62.6,62.6,100,29.56,0.2,South,3.5,-,N/A,,Overcast,180,2013-06-29 05:15:00
1:35 AM,62.6,60.8,94,29.56,0.2,Calm,Calm,-,N/A,,Overcast,0,2013-06-29 05:35:00
1:55 AM,62.6,60.8,94,29.57,0.2,Calm,Calm,-,N/A,,Overcast,0,2013-06-29 05:55:00
2:35 AM,62.6,60.8,94,29.56,0.2,Calm,Calm,-,N/A,,Overcast,0,2013-06-29 06:35:00
2:55 AM,62.6,60.8,94,29.55,0.2,Calm,Calm,-,N/A,,Overcast,0,2013-06-29 06:55:00
3:15 AM,62.6,60.8,94,29.55,0.2,Calm,Calm,-,N/A,,Overcast,0,2013-06-29 07:15:00
3:35 AM,64.4,62.6,94,29.56,0.5,Calm,Calm,-,N/A,,Overcast,0,2013-06-29 07:35:00
3:55 AM,64.4,62.6,94,29.56,0.5,East,3.5,-,N/A,,Overcast,80,2013-06-29 07:55:00
4:15 AM,64.4,62.6,94,29.56,0.5,East,3.5,-,N/A,,Overcast,100,2013-06-29 08:15:00
4:35 AM,64.4,62.6,94,29.56,0.5,Calm,Calm,-,N/A,,Overcast,0,2013-06-29 08:35:00
4:55 AM,64.4,62.6,94,29.56,0.5,ESE,3.5,-,N/A,,Overcast,110,2013-06-29 08:55:00
5:15 AM,64.4,62.6,94,29.56,0.5,SE,8.1,-,N/A,,Overcast,130,2013-06-29 09:15:00
5:35 AM,62.6,62.6,100,29.56,0.2,Calm,Calm,-,N/A,,Overcast,0,2013-06-29 09:35:00
5:55 AM,62.6,62.6,100,29.56,0.2,SSE,3.5,-,N/A,,Overcast,160,2013-06-29 09:55:00
6:15 AM,62.6,62.6,100,29.58,0.2,Calm,Calm,-,N/A,,Overcast,0,2013-06-29 10:15:00
6:35 AM,62.6,60.8,94,29.58,0.2,Calm,Calm,-,N/A,,Overcast,0,2013-06-29 10:35:00
6:55 AM,62.6,62.6,100,29.59,0.2,Calm,Calm,-,N/A,,Overcast,0,2013-06-29 10:55:00
7:15 AM,62.6,62.6,100,29.58,0.2,SE,4.6,-,N/A,,Overcast,130,2013-06-29 11:15:00
7:35 AM,62.6,62.6,100,29.59,0.2,SSE,3.5,-,N/A,,Overcast,150,2013-06-29 11:35:00
7:55 AM,62.6,62.6,100,29.60,0.5,SSE,3.5,-,N/A,,Overcast,160,2013-06-29 11:55:00
8:15 AM,64.4,62.6,94,29.60,1.0,Calm,Calm,-,N/A,,Overcast,0,2013-06-29 12:15:00
8:35 AM,64.4,62.6,94,29.59,3.0,South,3.5,-,N/A,,Overcast,180,2013-06-29 12:35:00
8:55 AM,64.4,64.4,100,29.59,6.0,Calm,Calm,-,N/A,,Overcast,0,2013-06-29 12:55:00
9:15 AM,64.4,62.6,94,29.60,6.0,Calm,Calm,-,N/A,,Overcast,0,2013-06-29 13:15:00
9:35 AM,66.2,64.4,94,29.59,5.0,Calm,Calm,-,N/A,,Overcast,0,2013-06-29 13:35:00
9:55 AM,68.0,66.2,94,29.59,8.0,Calm,Calm,-,N/A,,Overcast,0,2013-06-29 13:55:00
10:15 AM,68.0,68.0,100,29.59,10.0,Calm,Calm,-,N/A,,Overcast,0,2013-06-29 14:15:00
10:35 AM,69.8,69.8,100,29.60,10.0,South,4.6,-,N/A,,Overcast,170,2013-06-29 14:35:00
10:55 AM,71.6,69.8,94,29.59,10.0,SSE,4.6,-,N/A,,Overcast,160,2013-06-29 14:55:00
11:16 AM,71.6,69.8,94,29.59,10.0,SW,4.6,-,N/A,,Overcast,230,2013-06-29 15:16:00
11:35 AM,73.4,69.8,88,29.59,10.0,South,6.9,-,N/A,,Overcast,170,2013-06-29 15:35:00
11:55 AM,73.4,69.8,88,29.58,10.0,South,6.9,-,N/A,,Overcast,170,2013-06-29 15:55:00
12:15 PM,73.4,69.8,88,29.59,10.0,South,4.6,-,N/A,,Mostly Cloudy,170,2013-06-29 16:15:00
12:35 PM,73.4,69.8,88,29.58,10.0,SSE,4.6,-,N/A,,Overcast,150,2013-06-29 16:35:00
12:55 PM,73.4,69.8,88,29.59,10.0,South,4.6,-,N/A,,Overcast,170,2013-06-29 16:55:00
1:15 PM,73.4,69.8,88,29.59,10.0,SSE,6.9,-,N/A,,Overcast,160,2013-06-29 17:15:00
1:35 PM,73.4,69.8,88,29.59,10.0,SSE,10.4,-,N/A,,Mostly Cloudy,160,2013-06-29 17:35:00
1:55 PM,73.4,69.8,88,29.59,10.0,SE,8.1,-,N/A,,Overcast,140,2013-06-29 17:55:00
2:15 PM,75.2,69.8,83,29.58,10.0,South,9.2,-,N/A,,Mostly Cloudy,180,2013-06-29 18:15:00
2:35 PM,75.2,69.8,83,29.58,10.0,South,9.2,-,N/A,,Mostly Cloudy,180,2013-06-29 18:35:00
2:55 PM,77.0,69.8,78,29.58,10.0,South,10.4,-,N/A,,Scattered Clouds,180,2013-06-29 18:55:00
3:16 PM,77.0,69.8,78,29.58,10.0,SSE,11.5,16.1,N/A,,Scattered Clouds,160,2013-06-29 19:16:00
3:35 PM,77.0,69.8,78,29.58,10.0,SSE,11.5,18.4,N/A,,Mostly Cloudy,150,2013-06-29 19:35:00
3:55 PM,77.0,69.8,78,29.58,10.0,SSE,11.5,-,N/A,,Mostly Cloudy,160,2013-06-29 19:55:00
4:15 PM,78.8,69.8,74,29.58,10.0,SSE,9.2,18.4,N/A,,Mostly Cloudy,160,2013-06-29 20:15:00
4:35 PM,77.0,69.8,78,29.58,10.0,SSE,11.5,17.3,N/A,,Clear,160,2013-06-29 20:35:00
4:55 PM,77.0,68.0,74,-9999,10.0,South,13.8,19.6,N/A,,Clear,170,2013-06-29 20:55:00
5:15 PM,75.2,68.0,78,-9999,10.0,South,12.7,20.7,N/A,,Partly Cloudy,170,2013-06-29 21:15:00
5:35 PM,75.2,68.0,78,-9999,10.0,South,12.7,17.3,N/A,,Partly Cloudy,170,2013-06-29 21:35:00
5:55 PM,75.2,68.0,78,-9999,10.0,SSE,12.7,19.6,N/A,,Clear,160,2013-06-29 21:55:00
6:15 PM,75.2,68.0,78,-9999,10.0,SSE,9.2,18.4,N/A,,Clear,160,2013-06-29 22:15:00
6:35 PM,75.2,66.2,73,-9999,10.0,SSE,12.7,17.3,N/A,,Clear,160,2013-06-29 22:35:00
6:55 PM,73.4,66.2,78,-9999,10.0,SSE,11.5,-,N/A,,Clear,160,2013-06-29 22:55:00
7:15 PM,73.4,66.2,78,-9999,10.0,SSE,10.4,-,N/A,,Clear,160,2013-06-29 23:15:00
7:35 PM,73.4,66.2,78,-9999,10.0,SSE,6.9,-,N/A,,Clear,150,2013-06-29 23:35:00
7:55 PM,71.6,64.4,78,-9999,10.0,SE,8.1,-,N/A,,Clear,140,2013-06-29 23:55:00
8:15 PM,69.8,64.4,83,-9999,10.0,SSE,10.4,-,N/A,,Clear,160,2013-06-30 00:15:00
8:35 PM,69.8,64.4,83,-9999,10.0,SSE,6.9,-,N/A,,Clear,160,2013-06-30 00:35:00
8:55 PM,68.0,64.4,88,-9999,10.0,SE,6.9,-,N/A,,Clear,140,2013-06-30 00:55:00
9:15 PM,68.0,62.6,83,-9999,10.0,SSE,6.9,-,N/A,,Clear,150,2013-06-30 01:15:00
9:35 PM,66.2,62.6,88,-9999,10.0,SSE,5.8,-,N/A,,Clear,150,2013-06-30 01:35:00
9:55 PM,66.2,62.6,88,-9999,10.0,South,8.1,-,N/A,,Clear,170,2013-06-30 01:55:00
10:15 PM,66.2,64.4,94,-9999,10.0,Calm,Calm,-,N/A,,Mostly Cloudy,0,2013-06-30 02:15:00
10:35 PM,66.2,64.4,94,-9999,10.0,Calm,Calm,-,N/A,,Mostly Cloudy,0,2013-06-30 02:35:00
10:55 PM,66.2,62.6,88,29.68,10.0,SE,5.8,-,N/A,,Scattered Clouds,140,2013-06-30 02:55:00
11:15 PM,66.2,64.4,94,29.68,10.0,South,3.5,-,N/A,,Scattered Clouds,170,2013-06-30 03:15:00
11:35 PM,64.4,62.6,94,29.69,8.0,South,3.5,-,N/A,,Mostly Cloudy,170,2013-06-30 03:35:00
11:55 PM,64.4,62.6,94,29.69,7.0,Calm,Calm,-,N/A,,Mostly Cloudy,0,2013-06-30 03:55:00